�������l�o���
Date,Time,MP-1(��Sv/h),MP-2(��Sv/h),MP-3(��Sv/h),MP-4(��Sv/h),MP-5(��Sv/h),MP-6(��Sv/h),MP-7(��Sv/h),����,����(m/s),���J
2018/12/10,00:00,0.240,0.193,0.306,0.293,0.279,0.154,0.094,��,1.8,��
2018/12/10,00:10,0.241,0.191,0.307,0.294,0.279,0.154,0.095,��,2.8,��
2018/12/10,00:20,0.241,0.191,0.306,0.293,0.279,0.155,0.094,���k��,2.3,��
2018/12/10,00:30,0.240,0.192,0.305,0.294,0.278,0.154,0.094,��,3.0,��
2018/12/10,00:40,0.240,0.193,0.305,0.291,0.278,0.154,0.094,��,2.3,��
2018/12/10,00:50,0.239,0.192,0.306,0.292,0.277,0.154,0.093,���k��,3.5,��
2018/12/10,01:00,0.241,0.192,0.306,0.292,0.279,0.154,0.094,��,3.0,��
2018/12/10,01:10,0.239,0.191,0.305,0.292,0.279,0.154,0.094,��,2.8,��
2018/12/10,01:20,0.240,0.191,0.307,0.294,0.279,0.154,0.094,�k��,1.9,��
2018/12/10,01:30,0.240,0.191,0.306,0.292,0.278,0.154,0.094,���k��,0.7,��
2018/12/10,01:40,0.240,0.191,0.306,0.292,0.277,0.154,0.094,�k�k��,3.0,��
2018/12/10,01:50,0.238,0.191,0.305,0.292,0.277,0.154,0.094,�k��,3.4,��
2018/12/10,02:00,0.240,0.191,0.305,0.292,0.278,0.154,0.094,���k��,4.5,��
2018/12/10,02:10,0.241,0.191,0.305,0.293,0.277,0.154,0.095,���k��,5.0,��
2018/12/10,02:20,0.239,0.191,0.307,0.292,0.278,0.154,0.094,�k��,3.4,��
2018/12/10,02:30,0.240,0.191,0.306,0.292,0.278,0.154,0.094,���k��,5.7,��
2018/12/10,02:40,0.240,0.191,0.306,0.291,0.277,0.154,0.094,���k��,5.7,��
2018/12/10,02:50,0.240,0.191,0.306,0.293,0.278,0.154,0.093,���k��,7.7,��
2018/12/10,03:00,0.241,0.190,0.305,0.293,0.277,0.154,0.093,�k��,9.0,��
2018/12/10,03:10,0.240,0.191,0.306,0.293,0.278,0.154,0.094,�k��,7.6,��
2018/12/10,03:20,0.240,0.191,0.306,0.293,0.279,0.154,0.093,�k��,7.0,��
2018/12/10,03:30,0.240,0.191,0.305,0.293,0.278,0.154,0.094,�k��,7.1,��
2018/12/10,03:40,0.240,0.192,0.306,0.292,0.280,0.154,0.094,�k��,5.8,��
2018/12/10,03:50,0.239,0.192,0.306,0.293,0.278,0.155,0.094,�k��,5.7,��
2018/12/10,04:00,0.241,0.190,0.306,0.292,0.279,0.154,0.094,�k��,6.4,��
2018/12/10,04:10,0.240,0.190,0.306,0.291,0.279,0.153,0.094,�k��,5.6,��
2018/12/10,04:20,0.239,0.191,0.305,0.293,0.278,0.154,0.094,���k��,4.6,��
2018/12/10,04:30,0.240,0.191,0.306,0.291,0.278,0.154,0.094,�k��,4.2,��
2018/12/10,04:40,0.241,0.192,0.306,0.293,0.278,0.153,0.095,�k�k��,4.0,��
2018/12/10,04:50,0.240,0.191,0.307,0.292,0.279,0.154,0.093,�k�k��,4.4,��
2018/12/10,05:00,0.240,0.191,0.305,0.294,0.278,0.155,0.094,�k��,4.7,��
2018/12/10,05:10,0.240,0.192,0.307,0.292,0.278,0.155,0.093,�k�k��,4.1,��
2018/12/10,05:20,0.240,0.190,0.306,0.292,0.279,0.154,0.094,�k�k��,4.1,��
2018/12/10,05:30,0.239,0.192,0.306,0.292,0.278,0.154,0.094,�k,2.6,��
2018/12/10,05:40,0.240,0.191,0.307,0.294,0.277,0.154,0.093,�k��,2.7,��
2018/12/10,05:50,0.240,0.190,0.305,0.292,0.278,0.154,0.094,�k�k��,1.3,��
2018/12/10,06:00,0.240,0.192,0.306,0.293,0.279,0.154,0.093,�k,0.6,��
2018/12/10,06:10,0.240,0.191,0.307,0.292,0.280,0.154,0.094,�k�k��,0.7,��
2018/12/10,06:20,0.240,0.192,0.307,0.293,0.279,0.154,0.094,�k�k��,0.6,��
2018/12/10,06:30,0.240,0.191,0.306,0.292,0.277,0.153,0.094,��,1.7,��
2018/12/10,06:40,0.240,0.191,0.306,0.293,0.279,0.153,0.094,���k��,2.1,��
2018/12/10,06:50,0.240,0.191,0.307,0.293,0.277,0.154,0.094,��,3.3,��
2018/12/10,07:00,0.240,0.190,0.305,0.293,0.278,0.155,0.094,���k��,3.8,��
2018/12/10,07:10,0.240,0.191,0.305,0.293,0.278,0.154,0.095,���k��,2.7,��
2018/12/10,07:20,0.240,0.191,0.307,0.293,0.278,0.155,0.094,���k��,2.9,��
2018/12/10,07:30,0.240,0.191,0.306,0.292,0.278,0.154,0.094,���쐼,1.8,��
2018/12/10,07:40,0.239,0.191,0.306,0.293,0.279,0.154,0.094,�쐼,1.1,��
2018/12/10,07:50,0.240,0.191,0.306,0.292,0.278,0.155,0.094,��,0.6,��
2018/12/10,08:00,0.239,0.191,0.305,0.291,0.279,0.153,0.093,��,0.7,��
2018/12/10,08:10,0.240,0.191,0.306,0.293,0.276,0.153,0.094,�k�k��,0.8,��
2018/12/10,08:20,0.240,0.191,0.306,0.292,0.278,0.154,0.094,�k�k��,0.6,��
2018/12/10,08:30,0.240,0.191,0.307,0.290,0.279,0.154,0.094,�k��,0.9,��
2018/12/10,08:40,0.240,0.191,0.307,0.292,0.279,0.153,0.093,�k,1.6,��
2018/12/10,08:50,0.240,0.191,0.307,0.292,0.279,0.153,0.094,�k,2.3,��
2018/12/10,09:00,0.239,0.190,0.304,0.292,0.277,0.154,0.093,�k�k��,3.5,��
2018/12/10,09:10,0.239,0.191,0.306,0.293,0.278,0.154,0.093,�k��,2.7,��
2018/12/10,09:20,0.240,0.192,0.306,0.292,0.278,0.152,0.094,�k��,2.5,��
2018/12/10,09:30,0.240,0.190,0.306,0.291,0.278,0.154,0.093,���k��,1.5,��
2018/12/10,09:40,0.240,0.190,0.307,0.292,0.279,0.153,0.094,�k�k��,1.5,��
2018/12/10,09:50,0.240,0.189,0.305,0.291,0.278,0.154,0.094,�k�k��,3.0,��
2018/12/10,10:00,0.239,0.190,0.307,0.292,0.277,0.154,0.093,�k�k��,2.9,��
2018/12/10,10:10,0.238,0.190,0.305,0.292,0.279,0.154,0.093,�k��,4.1,��
2018/12/10,10:20,0.238,0.190,0.307,0.292,0.278,0.154,0.095,�k��,3.3,��
2018/12/10,10:30,0.239,0.191,0.305,0.294,0.278,0.155,0.093,�k��,2.9,��
2018/12/10,10:40,0.240,0.190,0.306,0.293,0.279,0.154,0.094,���k��,2.4,��
2018/12/10,10:50,0.240,0.190,0.307,0.292,0.278,0.155,0.093,���k��,2.4,��
2018/12/10,11:00,0.239,0.191,0.306,0.294,0.280,0.154,0.095,�k��,1.9,��
2018/12/10,11:10,0.239,0.190,0.307,0.292,0.279,0.155,0.094,��,1.6,��
2018/12/10,11:20,0.237,0.191,0.305,0.292,0.278,0.155,0.095,���k��,1.2,��
2018/12/10,11:30,0.238,0.191,0.305,0.293,0.280,0.155,0.093,��,2.1,��
2018/12/10,11:40,0.238,0.191,0.307,0.292,0.277,0.155,0.094,���쓌,2.0,��
2018/12/10,11:50,0.240,0.191,0.305,0.294,0.281,0.154,0.095,��,2.4,��
2018/12/10,12:00,0.241,0.191,0.305,0.292,0.277,0.155,0.094,���쓌,1.6,��
2018/12/10,12:10,0.241,0.191,0.304,0.293,0.279,0.154,0.095,��,1.0,��
2018/12/10,12:20,0.240,0.192,0.306,0.294,0.278,0.155,0.094,�k�k��,0.6,��
2018/12/10,12:30,0.241,0.191,0.305,0.291,0.280,0.156,0.093,���k��,3.5,��
2018/12/10,12:40,0.240,0.191,0.304,0.294,0.279,0.154,0.093,���k��,5.1,��
2018/12/10,12:50,0.240,0.192,0.305,0.290,0.279,0.155,0.095,��,4.7,��
2018/12/10,13:00,0.241,0.192,0.308,0.293,0.282,0.154,0.094,��,1.4,��
2018/12/10,13:10,0.240,0.191,0.305,0.291,0.278,0.154,0.094,�k��,2.6,��
2018/12/10,13:20,0.241,0.191,0.305,0.293,0.281,0.154,0.094,�k��,2.8,��
2018/12/10,13:30,0.238,0.190,0.307,0.293,0.281,0.154,0.094,���k��,2.1,��
2018/12/10,13:40,0.240,0.191,0.306,0.292,0.279,0.155,0.094,��,2.6,��
2018/12/10,13:50,0.239,0.192,0.306,0.293,0.281,0.154,0.094,��쐼,0.7,��
2018/12/10,14:00,0.238,0.192,0.308,0.292,0.279,0.155,0.094,�k�k��,1.6,��
2018/12/10,14:10,0.237,0.193,0.306,0.294,0.281,0.154,0.093,�k��,2.9,��
2018/12/10,14:20,0.237,0.193,0.305,0.292,0.278,0.153,0.094,�k,2.5,��
2018/12/10,14:30,0.238,0.191,0.307,0.293,0.279,0.152,0.095,�k�k��,2.6,��
2018/12/10,14:40,0.239,0.192,0.307,0.292,0.280,0.154,0.094,�k�k��,2.7,��
2018/12/10,14:50,0.240,0.191,0.306,0.293,0.278,0.154,0.094,�k��,3.4,��
2018/12/10,15:00,0.241,0.190,0.306,0.293,0.281,0.153,0.094,�k��,4.1,��
2018/12/10,15:10,0.240,0.192,0.305,0.294,0.280,0.154,0.093,���k��,3.3,��
2018/12/10,15:20,0.239,0.193,0.305,0.292,0.279,0.154,0.094,���k��,5.1,��
2018/12/10,15:30,0.236,0.190,0.306,0.294,0.282,0.155,0.094,�k��,4.7,��
2018/12/10,15:40,0.236,0.192,0.307,0.294,0.280,0.154,0.094,�k��,4.5,��
2018/12/10,15:50,0.237,0.192,0.306,0.293,0.280,0.155,0.093,�k�k��,3.9,��
2018/12/10,16:00,0.237,0.192,0.306,0.295,0.280,0.154,0.094,�k�k��,3.3,��
2018/12/10,16:10,0.237,0.190,0.305,0.294,0.280,0.156,0.094,�k��,3.0,��
2018/12/10,16:20,0.239,0.193,0.306,0.294,0.278,0.154,0.095,���k��,4.3,��
2018/12/10,16:30,0.239,0.191,0.307,0.294,0.278,0.154,0.094,�k��,3.7,��
2018/12/10,16:40,0.237,0.192,0.306,0.294,0.280,0.154,0.094,���k��,3.1,��
2018/12/10,16:50,0.236,0.191,0.305,0.294,0.280,0.155,0.094,���k��,3.8,��
2018/12/10,17:00,0.239,0.193,0.305,0.294,0.279,0.154,0.094,���k��,4.4,��
2018/12/10,17:10,0.240,0.192,0.307,0.293,0.280,0.154,0.094,�k��,4.2,��
2018/12/10,17:20,0.239,0.192,0.306,0.294,0.279,0.155,0.094,�k��,4.5,��
2018/12/10,17:30,0.239,0.191,0.306,0.294,0.279,0.155,0.093,�k��,5.2,��
2018/12/10,17:40,0.239,0.192,0.306,0.294,0.278,0.154,0.094,�k�k��,5.4,��
2018/12/10,17:50,0.239,0.192,0.306,0.294,0.278,0.155,0.094,�k��,5.2,��
2018/12/10,18:00,0.239,0.191,0.306,0.294,0.280,0.154,0.094,�k��,6.3,��
2018/12/10,18:10,0.239,0.192,0.306,0.294,0.279,0.155,0.095,���k��,7.7,��
2018/12/10,18:20,0.239,0.193,0.307,0.293,0.277,0.155,0.095,�k��,5.5,��
2018/12/10,18:30,0.239,0.193,0.307,0.294,0.279,0.155,0.094,�k��,4.5,��
2018/12/10,18:40,0.239,0.193,0.307,0.295,0.280,0.155,0.094,�k��,5.4,��
2018/12/10,18:50,0.239,0.191,0.307,0.294,0.279,0.155,0.094,�k��,5.4,��
2018/12/10,19:00,0.240,0.192,0.306,0.293,0.278,0.154,0.094,�k��,6.2,��
2018/12/10,19:10,0.239,0.192,0.305,0.294,0.279,0.155,0.094,�k��,5.5,��
2018/12/10,19:20,0.240,0.192,0.306,0.295,0.279,0.155,0.094,���k��,5.5,��
2018/12/10,19:30,0.239,0.192,0.307,0.295,0.280,0.154,0.094,�k��,6.4,��
2018/12/10,19:40,0.239,0.192,0.305,0.294,0.279,0.155,0.095,�k��,6.5,��
2018/12/10,19:50,0.239,0.191,0.306,0.295,0.278,0.155,0.095,���k��,6.6,��
2018/12/10,20:00,0.238,0.192,0.306,0.295,0.278,0.154,0.094,�k��,6.4,��
2018/12/10,20:10,0.239,0.193,0.307,0.293,0.279,0.155,0.094,�k��,7.3,��
2018/12/10,20:20,0.240,0.191,0.307,0.294,0.279,0.155,0.094,�k��,8.4,��
2018/12/10,20:30,0.240,0.191,0.306,0.293,0.277,0.155,0.094,���k��,7.9,��
2018/12/10,20:40,0.239,0.192,0.306,0.294,0.278,0.155,0.095,���k��,8.6,��
2018/12/10,20:50,0.239,0.193,0.306,0.294,0.279,0.155,0.094,�k��,8.4,��
2018/12/10,21:00,0.239,0.193,0.307,0.294,0.280,0.154,0.095,�k��,8.8,��
2018/12/10,21:10,0.239,0.192,0.308,0.294,0.279,0.155,0.094,�k��,9.5,��
2018/12/10,21:20,0.239,0.191,0.308,0.293,0.279,0.154,0.093,�k��,9.2,��
2018/12/10,21:30,0.239,0.192,0.307,0.295,0.278,0.156,0.095,�k��,9.2,��
2018/12/10,21:40,0.240,0.192,0.306,0.294,0.280,0.154,0.095,�k��,8.8,��
2018/12/10,21:50,0.239,0.192,0.307,0.295,0.279,0.155,0.095,�k��,7.7,��
2018/12/10,22:00,0.239,0.192,0.307,0.293,0.279,0.154,0.095,�k��,7.4,��
2018/12/10,22:10,0.241,0.192,0.307,0.294,0.280,0.155,0.093,���k��,7.3,��
2018/12/10,22:20,0.240,0.192,0.307,0.295,0.279,0.154,0.095,���k��,7.0,��
2018/12/10,22:30,0.240,0.192,0.307,0.294,0.279,0.155,0.094,�k��,6.2,��
2018/12/10,22:40,0.239,0.193,0.308,0.294,0.279,0.154,0.095,�k��,4.9,��
2018/12/10,22:50,0.240,0.192,0.307,0.294,0.279,0.156,0.095,�k��,4.6,��
2018/12/10,23:00,0.239,0.191,0.309,0.294,0.278,0.154,0.095,�k��,4.1,��
2018/12/10,23:10,0.239,0.191,0.307,0.295,0.279,0.155,0.095,�k��,2.3,��
2018/12/10,23:20,0.240,0.193,0.308,0.295,0.278,0.154,0.094,�k�k��,2.1,��
2018/12/10,23:30,0.239,0.193,0.306,0.295,0.279,0.155,0.094,�k��,2.3,��
2018/12/10,23:40,0.240,0.192,0.306,0.295,0.281,0.155,0.095,�k��,2.9,��
2018/12/10,23:50,0.239,0.191,0.308,0.295,0.279,0.154,0.095,�k��,3.2,��
